Latest Weather Observations for Kuitpo

IDS60801

Issued at 5:35 pm CST Thursday 24 April 2014 (issued every 30 minutes, with the page automatically refreshed every 10 minutes)

About weather observations | Map of weather stations | Latest weather observations for SA | Other Formats
Station Details ID: 023887 Name: KUITPO FOREST RESERVE Lat: -35.17 Lon: 138.68 Height: 365.0 m
Data from the previous 72 hours. | See also: Recent months at Kuitpo
Date/Time
CST
Temp
°C
App
Temp
°C
Dew
Point
Rel
Hum
%
Delta-T
°C
Wind Press
QNH
hPa
Press
MSL
hPa
Rain
since 9 am
mm
Dir
 
Spd
km/h
Gust
km/h
Spd
kts
Gust
kts
24/05:30pm 12.0 7.9 6.3 68 2.7 SE 17 28 9 15 1017.5 - 0.0
24/05:00pm 13.0 9.3 6.4 64 3.2 SE 15 26 8 14 1017.2 - 0.0
24/04:30pm 14.0 10.0 6.8 62 3.6 ESE 17 28 9 15 1017.2 - 0.0
24/04:00pm 14.9 11.8 7.2 60 3.9 SE 13 22 7 12 1017.2 - 0.0
24/03:30pm 15.5 12.4 7.3 58 4.1 SE 13 20 7 11 1017.2 - 0.0
24/03:00pm 15.4 12.3 7.2 58 4.1 SSE 13 22 7 12 1017.1 1016.5 0.0
24/02:30pm 15.8 12.0 7.6 58 4.2 ESE 17 24 9 13 1017.0 - 0.0
24/02:00pm 15.5 12.0 7.3 58 4.1 ESE 15 20 8 11 1017.1 - 0.0
24/01:30pm 15.7 11.6 8.0 60 3.9 E 19 26 10 14 1017.1 - 0.0
24/01:00pm 15.5 13.5 8.5 63 3.6 S 9 17 5 9 1017.4 - 0.0
24/12:30pm 15.4 13.0 8.6 64 3.5 SSE 11 24 6 13 1017.6 - 0.0
24/12:00pm 15.6 12.9 9.1 65 3.4 S 13 20 7 11 1017.9 1017.3 0.0
24/11:30am 15.5 12.4 10.3 71 2.8 SSE 17 28 9 15 1017.9 - 0.0
24/11:00am 14.6 11.6 10.8 78 2.0 SSE 17 28 9 15 1017.9 - 0.0
24/10:30am 14.6 11.5 11.7 83 1.6 SSE 19 28 10 15 1017.9 - 0.0
24/10:00am 13.4 10.6 11.5 88 1.0 SSE 17 30 9 16 1017.8 - 0.0
24/09:30am 13.8 11.8 12.7 93 0.6 SSE 15 24 8 13 1017.8 - 0.0
24/09:00am 13.4 11.6 13.2 99 0.1 S 15 24 8 13 1017.6 1017.0 3.0
24/08:30am 12.9 11.0 12.9 100 0.0 S 15 24 8 13 1017.3 - 3.0
24/08:00am 12.7 11.1 12.7 100 0.0 S 13 20 7 11 1016.8 - 3.0
24/07:30am 12.4 10.3 12.4 100 0.0 SSW 15 24 8 13 1016.2 - 3.0
24/07:00am 12.6 11.3 12.6 100 0.0 SSW 11 17 6 9 1015.8 - 3.0
24/06:30am 13.4 11.6 13.4 100 0.0 SW 15 20 8 11 1015.3 - 3.0
24/06:13am 13.4 9.2 13.4 100 0.0 WSW 28 48 15 26 1015.0 - 3.0
24/06:00am 13.7 10.7 13.7 100 0.0 W 22 39 12 21 1014.7 1014.1 2.0
24/05:30am 13.6 11.9 13.6 100 0.0 W 15 24 8 13 1014.5 - 1.0
24/05:00am 13.4 11.2 13.4 100 0.0 W 17 24 9 13 1014.4 - 1.0
24/04:30am 13.3 11.1 13.3 100 0.0 W 17 26 9 14 1014.2 - 1.0
24/04:00am 13.2 10.6 13.2 100 0.0 W 19 30 10 16 1013.8 - 1.0
24/03:30am 13.2 10.6 13.2 100 0.0 W 19 30 10 16 1013.8 - 1.0
24/03:00am 12.9 10.6 12.9 100 0.0 W 17 26 9 14 1013.8 1013.1 1.0
24/02:30am 12.7 10.3 12.7 100 0.0 W 17 24 9 13 1013.9 - 1.0
24/02:00am 12.9 10.6 12.9 100 0.0 W 17 30 9 16 1014.1 - 0.8
24/01:30am 13.3 9.8 13.3 100 0.0 W 24 43 13 23 1014.1 - 0.8
24/01:00am 13.6 11.5 13.6 100 0.0 W 17 30 9 16 1013.9 - 0.0
24/12:30am 13.8 10.7 13.3 97 0.3 W 22 33 12 18 1014.0 - 0.0
24/12:00am 14.3 11.1 12.0 86 1.3 W 20 32 11 17 1014.0 1013.3 0.0
 
Date/Time
CST
Temp
°C
App
Temp
°C
Dew
Point
Rel
Hum
%
Delta-T
°C
Wind Press
QNH
hPa
Press
MSL
hPa
Rain
since 9 am
mm
Dir
 
Spd
km/h
Gust
km/h
Spd
kts
Gust
kts
23/11:30pm 14.2 10.6 10.6 79 1.9 WNW 20 30 11 16 1014.1 - 0.0
23/11:00pm 13.7 10.2 10.3 80 1.8 WNW 19 28 10 15 1014.3 - 0.0
23/10:30pm 13.9 10.5 10.7 81 1.7 WNW 19 28 10 15 1014.4 - 0.0
23/10:00pm 13.7 9.8 9.6 76 2.1 NW 20 28 11 15 1014.4 - 0.0
23/09:30pm 13.8 9.8 8.4 70 2.8 NW 19 26 10 14 1014.2 - 0.0
23/09:00pm 13.9 10.1 7.7 66 3.1 NW 17 26 9 14 1014.1 1013.4 0.0
23/08:30pm 14.1 10.3 7.4 64 3.4 NW 17 30 9 16 1014.0 - 0.0
23/08:00pm 14.0 10.1 7.1 63 3.4 NW 17 24 9 13 1014.0 - 0.0
23/07:30pm 14.1 10.5 6.9 62 3.6 NW 15 22 8 12 1014.2 - 0.0
23/07:00pm 14.3 10.7 6.6 60 3.8 NW 15 22 8 12 1014.2 - 0.0
23/06:30pm 14.2 11.3 6.3 59 3.9 NNW 11 15 6 8 1014.1 - 0.0
23/06:00pm 14.5 11.9 6.3 58 4.0 NNW 9 11 5 6 1013.9 1013.2 0.0
23/05:30pm 15.4 12.9 6.4 55 4.5 NW 9 13 5 7 1013.8 - 0.0
23/05:00pm 16.1 13.5 6.3 52 4.9 NW 9 17 5 9 1013.7 - 0.0
23/04:30pm 16.0 13.1 4.7 47 5.4 NNW 9 15 5 8 1013.7 - 0.0
23/04:00pm 16.3 13.7 4.0 44 5.8 N 7 13 4 7 1013.6 - 0.0
23/03:30pm 17.3 14.0 4.3 42 6.3 WNW 11 19 6 10 1013.8 - 0.0
23/03:00pm 17.1 13.6 5.4 46 5.7 W 13 20 7 11 1013.8 1013.1 0.0
23/02:30pm 17.2 13.4 5.8 47 5.6 W 15 22 8 12 1014.1 - 0.0
23/02:00pm 17.0 13.2 5.9 48 5.5 WNW 15 24 8 13 1014.1 - 0.0
23/01:30pm 17.1 13.7 7.5 53 4.9 W 15 26 8 14 1014.4 - 0.0
23/01:00pm 16.2 12.4 7.4 56 4.5 W 17 26 9 14 1014.9 - 0.0
23/12:30pm 16.6 14.2 8.6 59 4.2 W 11 19 6 10 1015.5 - 0.0
23/12:00pm 15.7 12.8 8.0 60 3.9 WNW 13 19 7 10 1016.0 1015.4 0.0
23/11:30am 15.6 12.7 8.1 61 3.8 W 13 20 7 11 1016.6 - 0.0
23/11:00am 14.9 12.4 8.2 64 3.4 W 11 19 6 10 1016.9 - 0.0
23/10:30am 14.3 11.9 8.7 69 2.9 WNW 11 19 6 10 1017.1 - 0.0
23/10:00am 14.1 12.1 8.7 70 2.8 WNW 9 13 5 7 1017.3 - 0.0
23/09:30am 13.0 11.3 8.3 73 2.4 N 7 9 4 5 1017.3 - 0.0
23/09:00am 11.5 9.9 8.2 80 1.6 N 6 9 3 5 1017.4 1016.8 0.0
23/08:30am 10.4 8.6 7.8 84 1.3 N 7 9 4 5 1017.3 - 0.0
23/08:00am 9.5 7.6 7.4 87 1.0 N 7 11 4 6 1017.0 - 0.0
23/07:30am 9.3 7.5 7.9 91 0.7 NNE 7 9 4 5 1016.5 - 0.0
23/07:00am 8.7 6.6 8.3 97 0.2 NNE 9 11 5 6 1016.4 - 0.0
23/06:30am 8.2 5.6 7.9 98 0.1 NNE 11 13 6 7 1016.4 - 0.0
23/06:00am 8.3 5.7 7.9 97 0.2 NNE 11 15 6 8 1016.2 1015.6 0.0
23/05:30am 8.3 5.7 7.9 97 0.2 NNE 11 17 6 9 1016.0 - 0.0
23/05:00am 7.8 5.4 7.2 96 0.3 NNE 9 15 5 8 1016.2 - 0.0
23/04:30am 8.4 6.1 7.5 94 0.4 NE 9 11 5 6 1016.1 - 0.0
23/04:00am 9.1 6.6 8.0 93 0.5 NE 11 13 6 7 1016.2 - 0.0
23/03:30am 9.2 6.7 8.0 92 0.6 NE 11 13 6 7 1016.2 - 0.0
23/03:00am 9.2 7.0 8.0 92 0.6 NE 9 15 5 8 1016.6 1015.9 0.0
23/02:30am 9.3 7.1 7.9 91 0.7 ENE 9 11 5 6 1016.6 - 0.0
23/02:00am 9.4 7.2 7.8 90 0.8 ENE 9 11 5 6 1016.9 - 0.0
23/01:30am 9.9 7.9 8.5 91 0.7 ENE 9 11 5 6 1017.2 - 0.0
23/01:00am 9.5 7.4 8.1 91 0.7 ENE 9 11 5 6 1017.3 - 0.0
23/12:30am 9.7 7.1 7.8 88 0.9 ESE 11 13 6 7 1017.4 - 0.0
23/12:00am 9.8 7.2 7.7 87 1.0 ESE 11 15 6 8 1017.6 1017.0 0.0
 
Date/Time
CST
Temp
°C
App
Temp
°C
Dew
Point
Rel
Hum
%
Delta-T
°C
Wind Press
QNH
hPa
Press
MSL
hPa
Rain
since 9 am
mm
Dir
 
Spd
km/h
Gust
km/h
Spd
kts
Gust
kts
22/11:30pm 10.0 7.4 7.8 86 1.1 ESE 11 13 6 7 1017.9 - 0.0
22/11:00pm 10.1 7.4 7.5 84 1.3 SE 11 15 6 8 1018.1 - 0.0
22/10:30pm 10.2 7.5 7.4 83 1.4 SE 11 15 6 8 1018.1 - 0.0
22/10:00pm 10.4 7.4 7.5 82 1.4 SE 13 17 7 9 1017.9 - 0.0
22/09:30pm 10.5 7.4 7.4 81 1.5 SE 13 17 7 9 1018.0 - 0.0
22/09:00pm 11.0 8.0 7.5 79 1.7 SE 13 17 7 9 1018.2 1017.6 0.0
22/08:30pm 10.9 8.3 7.8 81 1.5 SE 11 15 6 8 1018.0 - 0.0
22/08:00pm 11.1 8.2 8.0 81 1.5 SE 13 19 7 10 1018.0 - 0.0
22/07:30pm 11.3 8.3 7.8 79 1.7 SE 13 19 7 10 1018.0 - 0.0
22/07:00pm 11.3 8.3 7.6 78 1.8 SE 13 19 7 10 1017.8 - 0.0
22/06:30pm 11.6 9.0 7.7 77 1.9 SE 11 19 6 10 1017.5 - 0.0
22/06:00pm 12.0 9.4 7.7 75 2.1 SSE 11 24 6 13 1017.4 1016.8 0.0
22/05:30pm 13.0 9.5 7.2 68 2.9 S 15 24 8 13 1017.1 - 0.0
22/05:00pm 13.7 10.4 6.6 62 3.5 S 13 22 7 12 1016.8 - 0.0
22/04:30pm 15.2 11.9 6.5 56 4.3 S 13 20 7 11 1016.4 - 0.0
22/04:00pm 16.5 13.4 7.4 55 4.6 SSW 13 20 7 11 1016.1 - 0.0
22/03:30pm 17.7 14.8 8.0 53 5.0 SSW 13 20 7 11 1016.0 - 0.0
22/03:00pm 19.0 16.6 8.6 51 5.5 SSW 11 20 6 11 1015.9 1015.3 0.0
22/02:30pm 17.3 14.7 7.6 53 5.0 SSE 11 20 6 11 1015.7 - 0.0
22/02:00pm 17.2 14.4 8.4 56 4.6 SSW 13 20 7 11 1015.6 - 0.0
22/01:30pm 18.1 16.1 8.7 54 5.0 SSW 9 20 5 11 1015.6 - 0.0
22/01:00pm 18.3 15.9 8.8 54 5.0 SSW 11 20 6 11 1015.8 - 0.0
22/12:30pm 17.8 15.4 8.6 55 4.8 S 11 19 6 10 1016.1 - 0.0
22/12:00pm 17.1 14.0 8.8 58 4.4 SW 15 22 8 12 1016.5 1015.8 0.0
22/11:30am 16.4 13.6 8.4 59 4.2 S 13 22 7 12 1016.6 - 0.0
22/11:00am 16.1 14.2 9.1 63 3.7 S 9 17 5 9 1016.7 - 0.0
22/10:30am 15.9 13.8 9.6 66 3.3 S 11 20 6 11 1016.7 - 0.0
22/10:00am 14.6 12.2 10.0 74 2.4 SSW 13 20 7 11 1016.7 - 0.0
22/09:30am 14.9 12.7 10.7 76 2.3 S 13 20 7 11 1016.6 - 0.0
22/09:00am 13.8 12.1 11.1 84 1.5 S 11 20 6 11 1016.2 1015.6 1.2
22/08:30am 13.5 11.9 11.4 87 1.1 S 11 20 6 11 1016.0 - 1.2
22/08:00am 12.9 10.8 11.3 90 0.9 S 13 20 7 11 1015.6 - 1.2
22/07:30am 12.9 10.7 12.0 94 0.5 S 15 30 8 16 1015.2 - 1.2
22/07:00am 13.1 11.2 12.9 99 0.1 S 15 24 8 13 1014.7 - 1.2
22/06:30am 13.1 11.6 13.1 100 0.0 S 13 20 7 11 1014.3 - 1.2
22/06:00am 13.0 11.5 13.0 100 0.0 S 13 20 7 11 1013.8 1013.1 1.2
22/05:30am 13.3 11.9 13.3 100 0.0 S 13 20 7 11 1013.7 - 1.2
22/05:00am 14.0 13.2 14.0 100 0.0 SSE 11 17 6 9 1013.2 - 1.2
22/04:30am 13.8 13.3 13.8 100 0.0 SSE 9 15 5 8 1013.0 - 1.2
22/04:00am 13.9 12.7 13.9 100 0.0 SSE 13 20 7 11 1012.5 - 1.2
22/03:30am 13.9 13.4 13.9 100 0.0 ESE 9 13 5 7 1012.0 - 1.2
22/03:00am 14.1 13.3 14.1 100 0.0 SSE 11 19 6 10 1011.8 1011.1 1.2
22/02:30am 14.0 12.6 13.4 96 0.3 SE 13 19 7 10 1011.8 - 1.2
22/02:00am 14.9 13.8 12.0 83 1.6 S 9 17 5 9 1011.9 - 1.2
22/01:30am 15.2 13.4 12.0 81 1.8 W 13 24 7 13 1011.7 - 1.2
22/01:00am 15.9 15.0 11.5 75 2.4 NE 7 13 4 7 1011.4 - 1.2
22/12:30am 16.3 15.6 12.1 76 2.3 NNW 7 15 4 8 1011.4 - 0.4
22/12:00am 17.7 16.7 11.0 65 3.7 E 7 11 4 6 1012.1 1011.4 0.0
 
Date/Time
CST
Temp
°C
App
Temp
°C
Dew
Point
Rel
Hum
%
Delta-T
°C
Wind Press
QNH
hPa
Press
MSL
hPa
Rain
since 9 am
mm
Dir
 
Spd
km/h
Gust
km/h
Spd
kts
Gust
kts
21/11:30pm 17.6 16.6 10.9 65 3.7 N 7 11 4 6 1012.3 - 0.0
21/11:00pm 17.7 16.6 10.6 63 3.9 S 7 9 4 5 1011.7 - 0.0
21/10:30pm 17.7 15.3 11.3 66 3.5 SW 15 28 8 15 1012.3 - 0.0
21/10:00pm 20.0 17.9 9.6 51 5.6 NW 11 17 6 9 1011.7 - 0.0
21/09:30pm 19.9 18.2 9.8 52 5.5 NW 9 15 5 8 1011.5 - 0.0
21/09:00pm 19.9 17.9 10.0 53 5.4 NNW 11 22 6 12 1011.5 1010.8 0.0
21/08:30pm 19.9 17.9 10.3 54 5.3 WNW 11 19 6 10 1011.6 - 0.0
21/08:00pm 19.7 18.1 11.5 59 4.6 NNW 11 17 6 9 1011.4 - 0.0
21/07:30pm 19.5 17.9 11.5 60 4.5 W 11 15 6 8 1011.5 - 0.0
21/07:00pm 22.2 18.8 7.6 39 7.7 NW 15 22 8 12 1011.1 - 0.0
21/06:30pm 22.8 19.3 7.4 37 8.1 NNW 15 28 8 15 1011.1 - 0.0
21/06:00pm 23.2 18.9 7.7 37 8.3 NNW 20 32 11 17 1010.9 1010.2 0.0

Other Formats:

Comma delimited format used in spreadsheet applications
http://www.bom.gov.au/fwo/IDS60801/IDS60801.94683.axf

JavaScript Object Notation format (JSON) in row-major order
http://www.bom.gov.au/fwo/IDS60801/IDS60801.94683.json